[[{"header":{"parameterUnit":"m.s-1","parameterCategory":1,"la1":30.2991,"la2":30.254,"lo1":-89.0895,"lo2":-89.0444,"dy":0.0017,"dx":0.0017,"nx":28,"ny":28,"refTime":"2025-02-25T03:00:00:Z","depth":0,"parameterNumber":2,"parameterNumberName":"U-component_of_WINDS"},"data":[0,0,0,0,0,0,0,0,0,0,0,0,0,0,0,0,0,0,0,0,0,0,0,0,0,0,0,0,0,0,0,0,0,0,0,0,0,0,0,0,0,0,0,0,0,0,0,0,0,0,0,0,0,0,0,0,0,0,1.0273,1.0274,0,1.0433,1.0435,1.0437,1.0456,1.0454,1.0453,1.0451,1.0622,1.0627,1.0633,0,0,0,0,0,0,0,0,0,0,0,0,0,0.9991,0.9996,1.0273,1.0275,1.0277,1.0433,1.0435,1.0437,1.0456,1.0454,1.0452,1.045,1.062,1.0627,1.0634,0,0,0,0,0,0,0,0,0,0,0,0,0,1.0129,0.9998,1.0272,1.0305,1.0309,1.0432,1.0435,1.0438,1.0457,1.0454,1.0452,1.045,1.0617,1.0626,1.0635,1.0738,0,0,1.0662,1.0666,0,0,0,0,0,0,0,0,1.0121,1.0139,1.0298,1.0303,1.0308,1.0422,1.0398,1.0539,1.0457,1.0401,1.0451,1.0448,1.0557,1.0571,1.0607,1.0746,1.0753,1.0663,1.0669,1.0673,1.0675,0,0,0,0,0,0,0,1.0111,1.0132,1.0336,1.03,1.0307,1.0314,1.0331,1.0425,1.0491,1.0406,1.0407,1.0426,1.056,1.0598,1.0611,1.0756,1.0663,1.0671,1.0677,1.068,1.0992,1.0994,0,0,0,0,0,0,1.0095,1.0124,1.0331,1.0341,1.0206,1.0321,1.034,1.0388,1.049,1.0503,1.0428,1.0426,1.0584,1.06,1.0617,1.0746,1.0672,1.0681,1.0686,1.0989,1.0992,1.0995,0,0,0,0,0,0,1.0089,1.0113,1.0325,1.0233,1.0261,1.0328,1.0382,1.0392,1.043,1.0506,1.0519,1.0454,1.0582,1.0604,1.0708,1.0752,1.0685,1.0693,1.0985,1.099,1.0994,1.1004,0,0,0,0,0,0,1.008,1.0111,1.0149,1.0234,1.0265,1.0411,1.0385,1.0397,1.0445,1.0445,1.0534,1.0547,1.0582,1.0695,1.0717,1.0764,1.07,1.0982,1.0987,1.0992,1.1,1.1008,1.1015,0,0,0,0,0,1.007,1.0146,1.015,1.0175,1.0314,1.0413,1.0432,1.0469,1.0448,1.0489,1.0538,1.0544,1.0744,1.0705,1.0731,1.078,1.0979,1.0986,1.0992,1.0997,1.1007,1.1015,0,0,0,0,0,0,1.0066,1.0158,1.0164,1.0269,1.0333,1.0416,1.0468,1.0478,1.0551,1.0547,1.0593,1.0613,1.0715,1.0758,1.0713,1.0887,1.086,1.0872,1.0855,1.0865,1.0872,1.086,1.0708,0,0,0,0,0,1.0077,1.0148,1.0225,1.031,1.0342,1.0399,1.0444,1.0467,1.0536,1.0564,1.0621,1.069,1.0768,1.0819,1.0895,1.1007,1.1028,1.1054,1.1062,1.1067,1.1077,1.1142,1.1155,1.1016,1.1016,1.1016,0,0,1.0101,1.016,1.0202,1.0311,1.0363,1.0438,1.0422,1.0501,1.0558,1.0577,1.0678,1.0723,1.0803,1.0911,1.0962,1.0951,1.112,1.1076,1.108,1.1087,1.115,1.1163,1.1175,1.1021,1.102,1.1019,0,0,1.0183,1.0233,1.0311,1.0364,1.0443,1.0481,1.05,1.0582,1.0612,1.0714,1.073,1.08,1.0933,1.099,1.1037,1.1143,1.1152,1.1167,1.1206,1.1268,1.1279,1.1289,1.1329,1.1342,1.1176,1.1176,1.1176,0,1.0203,1.0314,1.035,1.0429,1.0478,1.0497,1.0578,1.0628,1.0729,1.0763,1.0748,1.0918,1.0973,1.1096,1.1122,1.1159,1.1184,1.1156,1.1274,1.1285,1.1295,1.1333,1.1347,1.1177,1.1177,1.1177,1.1177,0,1.0336,1.0413,1.0466,1.0561,1.0616,1.0696,1.0747,1.0799,1.0818,1.0858,1.0964,1.1031,1.1122,1.1153,1.1173,1.128,1.1271,1.1265,1.1238,1.1308,1.1345,1.136,1.1179,1.1179,1.1178,1.1178,0,0,1.0418,1.0533,1.0552,1.0597,1.0686,1.0748,1.083,1.0917,1.0962,1.1032,1.1103,1.1216,1.1212,1.1265,1.1292,1.1346,1.1428,1.1334,1.1337,1.135,1.1553,1.1557,1.1573,1.1435,1.1438,1.144,1.1547,0,1.0511,1.0654,1.069,1.0814,1.0887,1.0907,1.0979,1.1044,1.1084,1.1154,1.12,1.128,1.1268,1.13,1.1355,1.1406,1.147,1.1399,1.1504,1.1507,1.1483,1.1592,1.1596,1.1693,1.1561,1.1563,1.1565,0,1.0638,1.0708,1.0839,1.0921,1.0953,1.1016,1.11,1.1166,1.1241,1.1267,1.1327,1.1349,1.1438,1.1407,1.1532,1.1483,1.1529,1.1561,1.1566,1.1577,1.154,1.1607,1.1725,1.1739,1.1588,1.1586,1.1584,0,1.0686,1.0814,1.0909,1.0947,1.1044,1.1089,1.1132,1.1204,1.1255,1.133,1.1364,1.1449,1.1496,1.1562,1.1608,1.158,1.173,1.1702,1.1756,1.1755,1.1786,1.1784,1.1913,1.1814,1.1814,1.1814,1.1814,0,1.0786,1.0865,1.0932,1.0991,1.1081,1.1124,1.1213,1.1258,1.1322,1.1392,1.1416,1.1481,1.1537,1.1611,1.1647,1.1746,1.1767,1.1793,1.1801,1.1791,1.1788,1.1821,1.1816,1.1818,1.1817,1.1816,1.1816,0,1.0855,1.0903,1.1008,1.1092,1.1115,1.1178,1.1252,1.1311,1.1353,1.1441,1.1464,1.1531,1.1619,1.1671,1.1783,1.1808,1.1918,1.1924,1.1892,1.1896,1.1947,1.1942,1.2103,1.2127,1.2012,1.2013,1.2014,0,1.0915,1.0977,1.1067,1.1114,1.1158,1.1234,1.1286,1.1332,1.1385,1.1476,1.1525,1.1615,1.1689,1.183,1.189,1.1976,1.1985,1.2036,1.1998,1.1986,1.1987,1.1983,1.199,1.2042,1.2043,1.2044,1.2044,0,1.1018,1.1039,1.1112,1.1194,1.1255,1.1322,1.1389,1.1428,1.1485,1.1545,1.1634,1.1692,1.1806,1.1896,1.1987,1.2035,1.2051,1.2056,1.2073,1.2063,1.2042,1.2055,1.191,1.2052,1.2051,1.205,1.205,1.205,1.1086,1.1142,1.1214,1.1296,1.1351,1.1413,1.1473,1.1523,1.1597,1.1692,1.1716,1.1811,1.1887,1.2012,1.2062,1.2139,1.2131,1.2155,1.2162,1.2167,1.2169,1.2029,1.2156,1.2156,1.2156,1.2155,1.2155,0,1.1191,1.1239,1.1313,1.1405,1.147,1.1477,1.1552,1.1606,1.1689,1.1758,1.183,1.1935,1.2022,1.2089,1.218,1.2228,1.2238,1.2251,1.2248,1.2259,1.2171,1.2147,1.2242,1.2242,1.2242,1.2242,1.2242,1.2242,1.1253,1.1348,1.1378,1.1503,1.1551,1.1643,1.1685,1.1745,1.18,1.1915,1.1987,1.2029,1.2099,1.2195,1.2277,1.2295,1.2327,1.2339,1.2358,1.2274,1.2265,1.2256,1.2234,1.2346,1.2346,1.244,1.2441,1.2442]},{"header":{"parameterUnit":"m.s-1","parameterCategory":1,"la1":30.2991,"la2":30.254,"lo1":-89.0895,"lo2":-89.0444,"dy":0.0017,"dx":0.0017,"nx":28,"ny":28,"refTime":"2025-02-25T03:00:00:Z","depth":0,"parameterNumber":3,"parameterNumberName":"V-component_of_WINDS"},"data":[0,0,0,0,0,0,0,0,0,0,0,0,0,0,0,0,0,0,0,0,0,0,0,0,0,0,0,0,0,0,0,0,0,0,0,0,0,0,0,0,0,0,0,0,0,0,0,0,0,0,0,0,0,0,0,0,0,0,-0.4646,-0.4646,0,-0.4671,-0.4672,-0.4672,-0.4763,-0.4765,-0.4768,-0.477,-0.4791,-0.479,-0.4788,0,0,0,0,0,0,0,0,0,0,0,0,0,-0.4674,-0.4673,-0.4646,-0.4646,-0.4646,-0.4671,-0.4672,-0.4672,-0.4763,-0.4766,-0.4768,-0.477,-0.4792,-0.479,-0.4788,0,0,0,0,0,0,0,0,0,0,0,0,0,-0.4677,-0.4673,-0.4646,-0.4695,-0.47,-0.4671,-0.4672,-0.4672,-0.4762,-0.4766,-0.4769,-0.4772,-0.4792,-0.479,-0.4788,-0.4713,0,0,-0.4782,-0.4781,0,0,0,0,0,0,0,0,-0.4676,-0.4676,-0.4687,-0.4692,-0.4697,-0.4718,-0.469,-0.4685,-0.4762,-0.4738,-0.477,-0.4773,-0.4764,-0.4764,-0.4762,-0.4714,-0.4715,-0.4782,-0.478,-0.4779,-0.4779,0,0,0,0,0,0,0,-0.4676,-0.4675,-0.4656,-0.4688,-0.4693,-0.4715,-0.4719,-0.4689,-0.4733,-0.4741,-0.4747,-0.4749,-0.4767,-0.4764,-0.4763,-0.4715,-0.4782,-0.478,-0.4779,-0.4778,-0.4609,-0.4606,0,0,0,0,0,0,-0.4669,-0.4674,-0.4655,-0.4657,-0.4694,-0.4712,-0.4716,-0.4708,-0.4734,-0.4741,-0.4747,-0.4754,-0.4766,-0.4765,-0.4764,-0.4679,-0.4779,-0.4778,-0.4776,-0.4612,-0.4608,-0.4604,0,0,0,0,0,0,-0.467,-0.4667,-0.4654,-0.4667,-0.4667,-0.4708,-0.4698,-0.4706,-0.4704,-0.4738,-0.4746,-0.4736,-0.4768,-0.4767,-0.4726,-0.4681,-0.4777,-0.4775,-0.4616,-0.4611,-0.4606,-0.4507,0,0,0,0,0,0,-0.467,-0.4666,-0.4638,-0.4666,-0.4666,-0.4615,-0.4695,-0.4705,-0.47,-0.4709,-0.473,-0.4736,-0.4771,-0.4728,-0.4724,-0.468,-0.4773,-0.462,-0.4613,-0.4608,-0.4515,-0.45,-0.4487,0,0,0,0,0,-0.4671,-0.4608,-0.4636,-0.4634,-0.4632,-0.4612,-0.4613,-0.4654,-0.4696,-0.4668,-0.4691,-0.4736,-0.4687,-0.4723,-0.4719,-0.4674,-0.4623,-0.4615,-0.4608,-0.4521,-0.4503,-0.4487,0,0,0,0,0,0,-0.4571,-0.4612,-0.4644,-0.4589,-0.4597,-0.4628,-0.4594,-0.4633,-0.4628,-0.4637,-0.4688,-0.4692,-0.4643,-0.4655,-0.4694,-0.4604,-0.4663,-0.4654,-0.4598,-0.4581,-0.4567,-0.4565,-0.4771,0,0,0,0,0,-0.4544,-0.4525,-0.4561,-0.4509,-0.4512,-0.4552,-0.4545,-0.4577,-0.4586,-0.459,-0.4609,-0.4616,-0.4603,-0.4592,-0.4582,-0.4517,-0.4524,-0.4485,-0.4471,-0.4459,-0.4451,-0.4419,-0.4402,-0.458,-0.458,-0.4581,0,0,-0.4485,-0.4505,-0.4489,-0.449,-0.4499,-0.4479,-0.4554,-0.4528,-0.4513,-0.4585,-0.4548,-0.4563,-0.4574,-0.4521,-0.4499,-0.4529,-0.4403,-0.445,-0.444,-0.4438,-0.441,-0.4393,-0.4378,-0.4575,-0.4576,-0.4577,0,0,-0.4367,-0.438,-0.4339,-0.4349,-0.4364,-0.4392,-0.4382,-0.4408,-0.4421,-0.4385,-0.4439,-0.4422,-0.4397,-0.4403,-0.4403,-0.4292,-0.4333,-0.4287,-0.4213,-0.4182,-0.4168,-0.4156,-0.4117,-0.4102,-0.4278,-0.4278,-0.4278,0,-0.4292,-0.4264,-0.4312,-0.4284,-0.4283,-0.435,-0.4309,-0.4315,-0.4325,-0.4322,-0.4357,-0.4329,-0.4341,-0.4291,-0.4265,-0.4262,-0.4252,-0.4284,-0.4166,-0.4154,-0.4144,-0.4107,-0.4092,-0.4272,-0.4273,-0.4274,-0.4274,0,-0.4171,-0.4151,-0.4115,-0.4126,-0.4121,-0.4086,-0.4129,-0.4118,-0.4152,-0.4176,-0.4139,-0.4156,-0.4151,-0.4142,-0.4173,-0.4097,-0.4116,-0.4157,-0.4217,-0.412,-0.4087,-0.4073,-0.4264,-0.4266,-0.4268,-0.427,0,0,-0.3988,-0.403,-0.4016,-0.4023,-0.4046,-0.4031,-0.3999,-0.3997,-0.3987,-0.3992,-0.3967,-0.3946,-0.3986,-0.3986,-0.4018,-0.3991,-0.3903,-0.4036,-0.4037,-0.4011,-0.3822,-0.379,-0.3773,-0.3931,-0.3928,-0.3926,-0.3821,0,-0.3877,-0.3828,-0.3872,-0.3814,-0.3796,-0.3861,-0.3835,-0.3845,-0.3868,-0.3856,-0.388,-0.3865,-0.3918,-0.3919,-0.3895,-0.3918,-0.3865,-0.3927,-0.3908,-0.3906,-0.3903,-0.3756,-0.3722,-0.3621,-0.3808,-0.3806,-0.3804,0,-0.374,-0.3742,-0.3683,-0.3712,-0.3707,-0.3682,-0.3684,-0.3672,-0.3687,-0.3705,-0.3706,-0.3748,-0.3719,-0.3779,-0.374,-0.3781,-0.3776,-0.3787,-0.3784,-0.3783,-0.3849,-0.3751,-0.359,-0.3575,-0.3784,-0.3786,-0.3787,0,-0.3614,-0.3602,-0.3566,-0.3569,-0.3602,-0.3584,-0.3596,-0.3614,-0.3611,-0.3613,-0.3611,-0.3608,-0.3607,-0.3604,-0.3644,-0.3683,-0.36,-0.3663,-0.3614,-0.3613,-0.3593,-0.3594,-0.3429,-0.359,-0.359,-0.359,-0.3591,0,-0.3485,-0.3446,-0.351,-0.3487,-0.3446,-0.3498,-0.3455,-0.3474,-0.349,-0.3472,-0.3528,-0.351,-0.3564,-0.3551,-0.3581,-0.3546,-0.3544,-0.3558,-0.3567,-0.3553,-0.3551,-0.355,-0.3558,-0.3586,-0.3587,-0.3588,-0.3589,0,-0.3336,-0.3378,-0.3342,-0.3378,-0.3387,-0.3354,-0.3385,-0.3365,-0.3393,-0.337,-0.3367,-0.3409,-0.3398,-0.3438,-0.3432,-0.3453,-0.34,-0.342,-0.3395,-0.3402,-0.3351,-0.3355,-0.318,-0.316,-0.3333,-0.3331,-0.333,0,-0.3251,-0.3223,-0.3257,-0.3251,-0.3261,-0.3249,-0.3247,-0.3297,-0.3292,-0.3308,-0.3287,-0.3281,-0.3278,-0.3256,-0.3286,-0.3282,-0.3302,-0.3242,-0.3302,-0.329,-0.3302,-0.3303,-0.3301,-0.3228,-0.3226,-0.3224,-0.3223,0,-0.3095,-0.3118,-0.3113,-0.3116,-0.3113,-0.3117,-0.3124,-0.3115,-0.317,-0.3162,-0.3152,-0.315,-0.3146,-0.3139,-0.3143,-0.3155,-0.3198,-0.3204,-0.3193,-0.3178,-0.3165,-0.3172,-0.3361,-0.3207,-0.3209,-0.321,-0.3211,-0.3212,-0.2976,-0.2955,-0.2977,-0.297,-0.2983,-0.2989,-0.2974,-0.3001,-0.2994,-0.2996,-0.3026,-0.3011,-0.3028,-0.3037,-0.3046,-0.3034,-0.3062,-0.3046,-0.3041,-0.3036,-0.3028,-0.3168,-0.3035,-0.3035,-0.3036,-0.3036,-0.3036,0,-0.2824,-0.2842,-0.2836,-0.2847,-0.2842,-0.2885,-0.2897,-0.289,-0.2876,-0.2889,-0.2887,-0.2877,-0.2871,-0.2901,-0.29,-0.2885,-0.2904,-0.2882,-0.2884,-0.2886,-0.3003,-0.3013,-0.2867,-0.2867,-0.2867,-0.2867,-0.2867,-0.2867,-0.2744,-0.2711,-0.2737,-0.2712,-0.273,-0.2717,-0.272,-0.2727,-0.2738,-0.2725,-0.2721,-0.2742,-0.2763,-0.2764,-0.2761,-0.277,-0.2767,-0.2738,-0.2753,-0.2861,-0.2878,-0.2893,-0.2903,-0.2737,-0.2737,-0.2638,-0.2637,-0.2637]}]]